This demonstration page uses our WeatherBlox Daily Observations layout. Learn more.

Left ArrowRight Arrow

Hourly Observations for May 7, 2015

Temp ( °F °C ) Dew Point ( °F °C ) Humidity (%) Winds ( mph kmh ) Pressure ( in mb ) Visibility ( mi km ) Precip ( " mm )
12:01 am 00:01 Cloudy with Rain 60 15.6 59 15 96 96 SE 15 24 29.71 1006 3 4 0.05 1.27
12:06 am 00:06 Cloudy with Rain 61 16 59 15 94 94 SSE 15 24 29.71 1006 3 5 0.00 0.00
12:28 am 00:28 Cloudy with Nearby Thunderstorms 61 16 59 15 94 94 SE 12 19 29.71 1006 4 6 0.00 0.00
12:54 am 00:54 Cloudy with Nearby Thunderstorms 60 15.6 59 15 96 96 SE 12 19 29.73 1007 3 5 0.21 5.33
1:32 am 01:32 Cloudy with Strong Thunderstorms 61 16 59 15 94 94 SE 14 22 29.71 1006 3 5 0.00 0.00
1:39 am 01:39 Cloudy with Strong Thunderstorms 61 16.1 59 15 93 93 SE 14 22 29.71 1006 2 3 0.27 6.86
1:49 am 01:49 Cloudy with Thunderstorms 61 16 59 15 94 94 undefined N/A 29.74 1007 3 5 0.39 9.91
1:54 am 01:54 Cloudy with Thunderstorms 61 16.1 59 15 93 93 NW 16 26 29.76 1008 2 3 0.39 9.91
1:56 am 01:56 Cloudy with Strong Thunderstorms 60 15.6 59 15 96 96 NW 10 17 29.74 1007 1 2 0.06 1.52
2:05 am 02:05 Cloudy with Strong Thunderstorms 59 15 59 15 100 100 Calm 29.74 1007 1 1 0.38 9.65
2:09 am 02:09 Cloudy with Nearby Thunderstorms 59 15 57 14 94 94 N 8 13 29.71 1006 2 2 0.00 0.00
2:14 am 02:14 Cloudy with Nearby Thunderstorms 59 15 57 14 94 94 NE 13 20 29.71 1006 3 5 0.00 0.00
2:18 am 02:18 Cloudy with Rain 59 15 57 14 94 94 E 16 26 29.71 1006 5 8 0.00 0.00
2:29 am 02:29 Cloudy with Nearby Thunderstorms 60 15.6 58 14.4 93 93 ENE 7 11 29.68 1005 5 8 0.46 11.68
2:41 am 02:41 Cloudy with Thunderstorms 61 16.1 58 14.4 90 90 VRB 3 6 29.71 1006 3 4 0.49 12.45
2:54 am 02:54 Cloudy with Strong Thunderstorms 60 15.6 58 14.4 93 93 ESE 5 7 29.72 1006 1 2 0.81 20.57
3:03 am 03:03 Cloudy with Strong Thunderstorms 61 16 57 14 88 88 NW 8 13 29.71 1006 1 1 0.00 0.00
3:11 am 03:11 Cloudy with Strong Thunderstorms 59 15 59 15 100 100 NE 5 7 29.71 1006 1 1 0.56 14.22
3:21 am 03:21 Cloudy with Nearby Thunderstorms 59 15 59 15 100 100 ENE 7 11 29.71 1006 2 3 0.00 0.00
3:27 am 03:27 Cloudy with Strong Thunderstorms 59 15 58 14.4 96 96 E 7 11 29.71 1006 3 4 0.84 21.34
3:38 am 03:38 Cloudy with Nearby Thunderstorms 59 15 59 15 100 100 E 5 7 29.71 1006 2 3 0.00 0.00
3:43 am 03:43 Cloudy with Strong Thunderstorms 59 15 59 15 100 100 SE 9 15 29.71 1006 2 3 0.00 0.00
3:51 am 03:51 Cloudy with Strong Thunderstorms 61 16 59 15 94 94 W 5 7 29.74 1007 2 2 1.06 26.92
3:54 am 03:54 Cloudy with Strong Thunderstorms 60 15.6 59 15 96 96 S 5 7 29.74 1007 1 2 1.11 28.19
4:31 am 04:31 Cloudy with Strong Thunderstorms 61 16.1 59 15 93 93 SSE 21 33 29.68 1005 2 3 0.60 15.24
4:38 am 04:38 Cloudy with Strong Thunderstorms 61 16 59 15 94 94 SSE 20 31 29.68 1005 1 2 0.00 0.00
4:46 am 04:46 Cloudy with Strong Thunderstorms 62 16.7 60 15.6 93 93 S 10 17 29.68 1005 1 1 1.24 31.50
4:54 am 04:54 Cloudy with Thunderstorms 62 16.7 60 15.6 93 93 SE 14 22 29.68 1005 2 3 1.47 37.34
4:56 am 04:56 Cloudy with Thunderstorms 62 16.7 60 15.6 93 93 SE 14 22 29.68 1005 3 5 0.02 0.51
5:03 am 05:03 Cloudy with Thunderstorms 63 17 59 15 88 88 ESE 14 22 29.68 1005 10 16 0.00 0.00
5:15 am 05:15 Mostly Cloudy with Nearby Thunderstorms 62 16.7 59 15 90 90 SE 13 20 29.68 1005 10 16 0.02 0.51
5:24 am 05:24 Mostly Cloudy 63 17 59 15 88 88 ESE 10 17 29.68 1005 10 16 0.00 0.00
5:54 am 05:54 Cloudy 62 16.7 60 15.6 93 93 S 6 9 29.69 1006 10 16 0.02 0.51
6:54 am 06:54 Cloudy 64 17.8 60 15.6 87 87 S 15 24 29.70 1006 10 16 0.00 0.00
7:54 am 07:54 Mostly Sunny 66 18.9 60 15.6 81 81 S 15 24 29.70 1006 10 16 0.00 0.00
8:54 am 08:54 Mostly Cloudy 67 19.4 61 16.1 81 81 S 16 26 29.73 1007 10 16 0.00 0.00
9:05 am 09:05 Mostly Cloudy 66 19 61 16 83 83 S 15 24 29.71 1006 10 16 0.00 0.00
9:34 am 09:34 Mostly Cloudy 70 21 61 16 73 73 SSW 16 26 29.68 1005 10 16 0.00 0.00
9:54 am 09:54 Mostly Cloudy 70 21.1 62 16.7 76 76 SSW 15 24 29.74 1007 10 16 0.00 0.00
10:54 am 10:54 Mostly Cloudy 73 22.8 62 16.7 69 69 SW 17 28 29.75 1007 10 16 0.00 0.00
11:14 am 11:14 Mostly Cloudy 74 23.3 60 15.6 62 62 SW 23 37 29.71 1006 10 16 0.00 0.00
11:30 am 11:30 Mostly Cloudy 73 22.8 60 15.6 64 64 SW 21 33 29.74 1007 10 16 0.00 0.00
11:54 am 11:54 Mostly Sunny 74 23.3 60 15.6 62 62 SW 18 30 29.77 1008 10 16 0.00 0.00
12:54 pm 12:54 Mostly Sunny 75 23.9 60 15.6 60 60 WSW 20 31 29.78 1008 10 16 0.00 0.00
1:54 pm 13:54 Mostly Cloudy 74 23.3 60 15.6 62 62 W 15 24 29.80 1009 10 16 0.00 0.00
2:54 pm 14:54 Mostly Sunny 76 24.4 58 14.4 54 54 W 15 24 29.79 1009 10 16 0.00 0.00
3:54 pm 15:54 Partly Cloudy 75 23.9 59 15 58 58 W 13 20 29.79 1009 10 16 0.00 0.00
4:54 pm 16:54 Mostly Sunny 74 23.3 59 15 60 60 W 14 22 29.79 1009 10 16 0.00 0.00
5:54 pm 17:54 Partly Cloudy 73 22.8 57 13.9 57 57 WNW 13 20 29.81 1010 10 16 0.00 0.00
6:54 pm 18:54 Sunny 73 22.8 56 13.3 55 55 WNW 12 19 29.83 1010 10 16 0.00 0.00
7:54 pm 19:54 Mostly Cloudy 69 20.6 56 13.3 63 63 NW 10 17 29.86 1011 10 16 0.00 0.00
8:54 pm 20:54 Clear 65 18.3 55 12.8 70 70 NW 14 22 29.85 1011 10 16 0.00 0.00
9:54 pm 21:54 Clear 63 17.2 55 12.8 76 76 NNW 17 28 29.88 1012 10 16 0.00 0.00
10:54 pm 22:54 Clear 61 16.1 53 11.7 75 75 NNW 12 19 29.94 1014 10 16 0.00 0.00
11:54 pm 23:54 Mostly Cloudy 59 15 52 11.1 78 78 N 9 15 29.96 1015 10 16 0.00 0.00

Powered by AerisWeather